Home   Weather   Riyadh   Past weeks

Flag for Saudi Arabia Past Weather in Riyadh, Saudi Arabia — Yesterday and Last 2 Weeks

Now
111 °F

Scattered clouds.


Feels Like: 104 °F
Forecast: 84 / 112 °F
Wind: 17 mph from Northeast

Location: King Khaled International Airport

Current Time: Aug 18, 2017 at 1:59:50 pm

Latest Report: Aug 18, 2017 at 1:00 pm


Visibility: 6 mi

Pressure: 29.71 "Hg (27.88 "Hg at 590m altitude)

Humidity: 7%

Dew Point: 34 °F

Location of RiyadhLocation

Past Weather in Riyadh — Graph

°F

Riyadh Temperature Yesterday

Maximum temperature yesterday: 111 °F (at 2:00 pm)
Minimum temperature yesterday: 84 °F (at 6:00 am)
Average temperature yesterday: 99 °F

High & Low Weather Summary for the Past Weeks

 TemperatureHumidityPressure
High115 °F (Aug 10, 1:00 pm)31% (Aug 17, 6:00 am)29.77 "Hg (Aug 17, 6:00 am)
Low81 °F (Aug 10, 6:00 am)4% (Aug 5, 4:00 pm)29.56 "Hg (Aug 10, 4:00 pm)
Average99 °F10%29.68 "Hg
* Reported Aug 3 12:00 pm — Aug 18 12:00 pm, Riyadh. Weather by CustomWeather, © 2017

Note: Actual official high and low records may vary slightly from our data, if they occured in-between our weather recording intervals... More about our weather records

Advertising

Riyadh Weather History for the Previous 24 Hours

Scroll right to see more
 ConditionsComfort  
Time TempWeatherWind HumidityBarometerVisibility
12:00 pm
Fri, Aug 18
109 °FPassing clouds.16 mph8%29.71 "Hg6 mi
11:00 am109 °FSunny.16 mph8%29.74 "Hg10 mi
10:00 am106 °FSunny.12 mph10%29.77 "Hg10 mi
9:00 am100 °FSunny.8 mph12%29.77 "Hg10 mi
8:00 am93 °FSunny.5 mph13%29.77 "Hg10 mi
7:00 am86 °FSunny.5 mph18%29.77 "Hg10 mi
6:00 am84 °FSunny.7 mph19%29.74 "Hg10 mi
5:00 am84 °FClear.3 mph18%29.74 "Hg10 mi
4:00 am86 °FClear.3 mph17%29.74 "Hg10 mi
3:00 am86 °FClear.No wind20%29.71 "Hg10 mi
2:00 am88 °FClear.No wind17%29.71 "Hg10 mi
1:00 am88 °FClear.No wind22%29.74 "Hg10 mi
12:00 am91 °FClear.No wind15%29.74 "Hg10 mi
11:00 pm
Thu, Aug 17
95 °FClear.5 mph13%29.74 "Hg10 mi
10:00 pm97 °FClear.6 mph13%29.74 "Hg5 mi
9:00 pm99 °FClear.5 mph12%29.74 "Hg5 mi
8:00 pm100 °FClear.6 mph12%29.74 "Hg4 mi
7:00 pm102 °FClear.7 mph10%29.71 "Hg4 mi
6:00 pm104 °FDuststorm.12 mph10%29.71 "Hg3 mi
5:00 pm108 °FScattered clouds.12 mph9%29.71 "Hg3 mi
4:00 pm109 °FPartly sunny.5 mph8%29.71 "Hg5 mi
3:00 pm106 °FPartly sunny.7 mph9%29.71 "Hg1 mi
2:26 pm108 °FDense fog.29 mph11%29.74 "Hg0 mi
2:00 pm111 °FScattered clouds.6 mph8%29.71 "HgN/A
1:00 pm109 °FSunny.3 mph8%29.74 "Hg10 mi
Weather by CustomWeather, © 2017

See weather overviewHow to use our weather pages